Regional Weather Roundup
Issued by NWS New Orleans/Baton Rouge, LA

Home | Current Version | Previous Version | Text Only | Print | Product List | Glossary On
Versions: 1 2 3 4 5 6 7 8 9 10 11 12 13 14 15 16 17 18 19 20 21 22 23 24 25 26 27
000
ASUS44 KLIX 181113
RWRLIX
NEW ORLEANS REGIONAL WEATHER ROUNDUP
NATIONAL WEATHER SERVICE NEW ORLEANS LA
500 AM CST WED JAN 18 2017

NOTE: "FAIR" INDICATES FEW OR NO CLOUDS BELOW 12,000 FEET WITH NO
      SIGNIFICANT WEATHER AND/OR OBSTRUCTIONS TO VISIBILITY.
      SKY/WX - SKY CONDITION AND SIGNIFICANT WEATHER.
      TMP - AIR TEMPERATURE.     DP    - DEWPOINT TEMPERATURE.
      RH  - RELATIVE HUMIDITY.   PRES  - PRESSURE.
      HI  - HEAT INDEX.          WCI   - WIND CHILL INDEX.

*  THESE STATIONS ARE NOT NWS OR FAA STATIONS AND ARE NOT UNDER
   NWS QUALITY CONTROL.

LAZ038-040-048-061>063-065>067-069-181200-
SOUTHEAST LOUISIANA

CITY           SKY/WX    TMP DP  RH WIND       PRES   REMARKS
N.O. AUDUBON   NOT AVBL
N.O. INTL ARPT FOG       68  68 100 SE6       30.12S VSB 1/2
N.O. LAKEFRONT CLOUDY    68  68 100 S8        30.12F
N.O. DOWNTOWN*   N/A     69  68  96 S8        30.13S FOG
RESERVE*       FOG       69  67  94 CALM      30.12R VSB 1/2
SLIDELL        FOG       67  67 100 CALM      30.12F VSB 1/4
BATON ROUGE    FOG       64  64 100 CALM      30.11S VSB 1/4
BOOTHVILLE     FOG       58  58 100 CALM      30.12S VSB 1/4
BELLE CHASSE   CLOUDY    68  68 100 S6        30.12R
BOGALUSA*      CLOUDY    68  65  91 CALM      30.15S VSB 3/4
GALLIANO*      FOG       68  66  92 CALM      30.11S VSB<1/4
NEW ROADS*     FOG       66  66 100 SE3       30.11R VSB 1/2
GONZALES*      CLOUDY    69  68  96 CALM      30.11R
HAMMOND*       CLOUDY    64  63  94 E3        30.13S FOG
HOUMA*         CLOUDY    69  69  99 SE5       30.11S FOG
PORT FOURCHON* FOG       66  66 100 E5        30.11R VSB 1/4

$$

MSZ070-080>082-181200-
SOUTHERN MISSISSIPPI

CITY           SKY/WX    TMP DP  RH WIND       PRES   REMARKS
MCCOMB         CLOUDY    66  65  96 S5        30.13R FOG
GULFPORT       FOG       66  66 100 CALM      30.13S VSB 1/4
BILOXI         FOG       64  64 100 CALM      30.13S VSB 1/2
PASCAGOULA     FOG       66  65  96 CALM      30.14R VSB 1/4

$$

COASTAL OBSERVATIONS
LAKE AND NEARSHORE STATIONS

STATION/POSITION TIME  TEMP    WIND        PRES    WAVE
                       AIR SEA DIR/SP/G            HT/PER
                 (UTC) (F)     (DEG/KT/KT) (MB)    (FT/S)
PASCAGOULA       1048   65     160/  4/  5 1020.0
WAVELAND YACHT   1048   64 64     CALM     1020.5
GRAND ISLE       1048   65 67  110/  3/  4 1019.9
SOUTHWEST PASS   1048          130/  9/ 10   N/A
NEW CANAL        1042   68 58  190/  5/  7 1019.1
SHELL BEACH      1042   66 65  110/  4/  4 1020.1

OFFSHORE STATIONS

STATION/POSITION TIME  TEMP    WIND        PRES    WAVE
                       AIR SEA DIR/SP/G            HT/PER
                 (UTC) (F)     (DEG/KT/KT) (MB)    (FT/S)

$$





USA.gov is the U.S. government's official web portal to all federal, state and local government web resources and services.